Simultaneous Nadir Overpasses (SNOs) Predictions

Prediction of SNOs between METOP-B and NOAA-19 Satellite Orbit:

Table of predicted SNOs for the next 14.0 days since TLE Epoch: 3/1/2025
Index Date (METOP-B) Time (METOP-B) Lat,Lon (METOP-B) SZA (METOP-B ) Date (NOAA-19) Time (NOAA-19) Lat,Lon (NOAA-19) SZA (NOAA-19 ) Distance(km) Time Diff (sec)
1 03/11/2025 16:01:59 80.68, 10.94 90.05 03/11/2025 16:00:56 80.69, 10.88 90.00 1.27 63
2 03/11/2025 16:52:40 -80.69, 178.17 89.98 03/11/2025 16:51:53 -80.68, 178.28 90.00 2.18 47
3 03/11/2025 17:43:20 80.66, -14.14 90.05 03/11/2025 17:42:51 80.66, -13.99 90.06 2.75 29
4 03/11/2025 18:34:01 -80.67, 153.09 89.98 03/11/2025 18:33:49 -80.67, 153.06 89.99 0.61 12
5 03/11/2025 19:24:41 80.65, -39.23 90.06 03/11/2025 19:24:47 80.65, -39.22 90.07 0.23 6
6 03/11/2025 20:15:21 -80.63, 128.34 89.93 03/11/2025 20:15:44 -80.64, 128.18 89.94 3.20 23
7 03/11/2025 21:06:02 80.63, -64.31 90.06 03/11/2025 21:06:43 80.64, -64.44 90.07 2.45 41
8 03/11/2025 21:56:42 -80.61, 103.25 89.92 03/11/2025 21:57:39 -80.61, 103.30 89.88 0.80 57



Historial Predications of SNOs between METOP-B and NOAA-19
